TimeCST,TemperatureF,Dew PointF,Humidity,Sea Level PressureIn,VisibilityMPH,Wind Direction,Wind SpeedMPH,Gust SpeedMPH,PrecipitationIn,Events,Conditions,WindDirDegrees,DateUTC
12:53 AM,36.0,28.0,73,30.38,9.0,West,5.8,-,N/A,,Clear,270,2012-11-16 06:53:00
1:53 AM,36.0,27.0,70,30.40,8.0,West,5.8,-,N/A,,Clear,280,2012-11-16 07:53:00
2:53 AM,34.0,27.0,75,30.40,8.0,West,4.6,-,N/A,,Clear,280,2012-11-16 08:53:00
3:53 AM,34.0,27.0,75,30.41,8.0,WNW,5.8,-,N/A,,Clear,290,2012-11-16 09:53:00
4:53 AM,33.1,27.0,78,30.42,8.0,WNW,5.8,-,N/A,,Clear,300,2012-11-16 10:53:00
5:53 AM,32.0,26.1,79,30.44,7.0,NW,4.6,-,N/A,,Clear,310,2012-11-16 11:53:00
6:53 AM,32.0,27.0,82,30.45,5.0,NW,3.5,-,N/A,,Haze,320,2012-11-16 12:53:00
7:18 AM,32.0,28.4,87,30.44,5.0,Calm,Calm,-,N/A,,Mostly Cloudy,0,2012-11-16 13:18:00
7:53 AM,36.0,33.1,89,30.47,4.0,NNE,3.5,-,N/A,,Overcast,30,2012-11-16 13:53:00
8:15 AM,42.8,39.2,87,30.45,4.0,NE,4.6,-,N/A,,Overcast,50,2012-11-16 14:15:00
8:53 AM,44.1,41.0,89,30.47,5.0,ENE,8.1,-,N/A,,Overcast,60,2012-11-16 14:53:00
9:53 AM,46.9,42.1,83,30.48,6.0,NNE,5.8,-,N/A,,Haze,30,2012-11-16 15:53:00
10:00 AM,48.2,42.8,82,30.46,6.0,NNE,6.9,-,N/A,,Haze,30,2012-11-16 16:00:00
10:53 AM,46.0,41.0,83,30.49,8.0,NNE,6.9,-,N/A,,Mostly Cloudy,30,2012-11-16 16:53:00
11:53 AM,48.9,41.0,74,30.48,6.0,NE,5.8,-,N/A,,Haze,50,2012-11-16 17:53:00
12:08 PM,48.2,41.0,76,30.46,6.0,NNE,5.8,-,N/A,,Haze,20,2012-11-16 18:08:00
12:53 PM,46.9,39.9,77,30.48,6.0,NE,8.1,-,N/A,,Haze,40,2012-11-16 18:53:00
1:01 PM,48.2,41.0,76,30.47,6.0,North,9.2,-,N/A,,Haze,10,2012-11-16 19:01:00
1:53 PM,46.9,39.0,74,30.49,5.0,NNE,12.7,-,N/A,,Haze,20,2012-11-16 19:53:00
2:53 PM,45.0,39.0,80,30.50,5.0,NNE,12.7,-,N/A,,Haze,30,2012-11-16 20:53:00
3:53 PM,42.1,37.9,85,30.51,4.0,NE,5.8,-,N/A,,Clear,50,2012-11-16 21:53:00
4:53 PM,39.0,36.0,89,30.51,7.0,NE,6.9,-,N/A,,Clear,50,2012-11-16 22:53:00
5:53 PM,39.0,36.0,89,30.51,8.0,ENE,4.6,-,N/A,,Partly Cloudy,60,2012-11-16 23:53:00
6:53 PM,39.0,36.0,89,30.51,10.0,East,5.8,-,N/A,,Clear,80,2012-11-17 00:53:00
7:53 PM,37.0,34.0,89,30.50,9.0,East,4.6,-,N/A,,Clear,90,2012-11-17 01:53:00
8:53 PM,37.0,34.0,89,30.50,8.0,Calm,Calm,-,N/A,,Partly Cloudy,0,2012-11-17 02:53:00
9:53 PM,34.0,33.1,96,30.49,6.0,Calm,Calm,-,N/A,,Clear,0,2012-11-17 03:53:00
10:41 PM,33.8,30.2,87,30.48,6.0,Calm,Calm,-,N/A,,Partly Cloudy,0,2012-11-17 04:41:00
10:53 PM,32.0,30.0,92,30.50,6.0,Calm,Calm,-,N/A,,Clear,0,2012-11-17 04:53:00
11:32 PM,32.0,30.2,93,30.50,4.0,Calm,Calm,-,N/A,,Scattered Clouds,0,2012-11-17 05:32:00
11:41 PM,33.8,32.0,93,30.50,4.0,Calm,Calm,-,N/A,,Mostly Cloudy,0,2012-11-17 05:41:00
11:53 PM,33.1,33.1,100,30.52,4.0,Calm,Calm,-,N/A,,Overcast,0,2012-11-17 05:53:00